Regional Weather Roundup
Issued by NWS Grand Forks, ND

Home | Current Version | Previous Version | Graphics & Text | Print | Product List | Glossary On
Versions: 1 2 3 4 5 6 7 8 9 10 11 12 13 14 15 16 17 18 19 20 21 22 23 24 25 26 27 28 29 30 31 32 33 34 35 36 37 38 39 40 41 42 43 44 45 46 47 48 49 50
000
ASUS43 KFGF 280310
RWRFGF
PRAIRIE TO PINES  WEATHER ROUNDUP
NATIONAL WEATHER SERVICE EASTERN NORTH DAKOTA/GRAND FORKS ND
1000 PM CDT TUE JUN 27 2017

 **SATELLITE DATA USED TO AUGMENT SKY COVER AT AUTOMATED STATIONS**
 *****  WEATHER ACROSS EASTERN NORTH DAKOTA  *****

CITY           SKY/WX    TMP DP  RH WIND       PRES   REMARKS
GRAND FORKS    FAIR      70  49  47 SE15      29.61F
GRAND FRKS AFB FAIR      68  48  48 SE14      29.61S
DEVILS LAKE    FAIR      69  56  62 SE13      29.56F
FARGO          CLOUDY    70  51  51 SE17      29.63F
WAHPETON ARPT  MOCLDY    68  46  45 SE10      29.67R
$$

 ***** WEATHER ACROSS CENTRAL AND WESTERN NORTH DAKOTA  *****

CITY           SKY/WX    TMP DP  RH WIND       PRES   REMARKS
BISMARCK       FAIR      67  65  93 NE9       29.50S THUNDER
MINOT          FAIR      75  62  64 N3        29.52R
JAMESTOWN      CLOUDY    73  52  47 SE15      29.57S
MINOT AFB      FAIR      76  59  56 N13       29.52R
GARRISON         N/A     69  65  86 SE10      29.51R
WILLISTON      FAIR      72  55  55 N8        29.61R
DICKINSON      CLOUDY    74  50  42 NW16      29.59R
HETTINGER      CLOUDY    74  49  41 NW7       29.62R
$$

 *****  OTHER AIRPORT OBSERVATIONS IN OUR AREA  *****

CITY           SKY/WX    TMP DP  RH WIND       PRES   REMARKS
WALHALLA       NOT AVBL
GRAFTON AIRPOR FAIR      68  48  49 MISG      29.63R
VALLEY CITY AR MOCLDY    72  52  49 SE14G21   29.63R
CANDO          NOT AVBL
CAVALIER APRT  FAIR      70  48  46 SE10      29.59S
GWINNER        CLOUDY    72  52  49 SE12G18   29.62R
SHEYENNE NWR     N/A     71  49  46 SE10      29.95S
ROLLA            N/A     68  54  60 S7        29.58R
 ***** THE ABOVE OBSERVATIONS ARE NON NWS ARE NOT QUALITY
       CONTROLLED AND MAY MIS-REPORT RAIN FOR SNOW...
$$

  *****  WEATHER ACROSS NORTHERN MINNESOTA  *****

CITY           SKY/WX    TMP DP  RH WIND       PRES   REMARKS
FLAG ISLAND    MOCLDY    66  55  68 SE10      29.70S
WARROAD        FAIR      64  54  68 SE6       29.71S
ROSEAU         FAIR      63  52  67 SE8       29.69S
HALLOCK        FAIR      66  48  52 SE10      29.62F
THF RVR FALLS  MOCLDY    68  47  46 SE10      29.69F
BAUDETTE       FAIR      62  49  62 SE7       29.73S
WASKISH        FAIR      63  52  67 SE3       29.75S
CROOKSTON      FAIR      68  46  45 SE16      29.66S
STEPHEN NDAWN    N/A     68  46  45 SE10        N/A
GREENBUSH NDAW   N/A     66  46  48 SE6         N/A
$$
  *****  WEATHER ACROSS CENTRAL AND WEST MINNESOTA  *****

CITY           SKY/WX    TMP DP  RH WIND       PRES   REMARKS
FOSSTON        FAIR      64  46  52 SE7       29.71F
BEMIDJI        FAIR      63  46  54 SE8       29.75S
PARK RAPIDS    LGT RAIN  64  49  57 VRB3      29.76S
ELBOW LAKE     CLOUDY    69  48  47 S15       29.71R
WADENA         CLOUDY    63  52  67 E8        29.75S
DETROIT LAKES  FAIR      64  50  59 SE13      29.72F
MOORHEAD       MOCLDY    70  48  46 SE9G16    29.65F
FERGUS FALLS   CLOUDY    66  52  59 SE10      29.67S
MORRIS MN      FAIR      72  45  37 S21G26    29.71R
STAPLES        DRIZZLE   64  46  52 SE7       29.76S
$$
  *****  WEATHER ELSEWHERE ACROSS MINNESOTA  *****

CITY           SKY/WX    TMP DP  RH WIND       PRES   REMARKS
DULUTH         FAIR      62  46  55 S5        29.84S
INTRNTL FALLS  FAIR      59  46  62 CALM      29.76R
ELY            FAIR      63  46  55 S3        29.83R
CLOQUET        FAIR      61  45  55 CALM      29.84S
WHEATON        FAIR      72  45  37 SE15      29.69R
BRAINERD       FAIR      63  46  54 VRB5      29.79S
HIBBING        FAIR      51  46  83 CALM      29.82S
ALEXANDRIA     FAIR      61  53  75 E9        29.75R
SAINT CLOUD    LGT RAIN  64  52  64 S16G22    29.76F
MINNEAPOLIS    MOCLDY    71  44  37 SE10G23   29.81F
$$

  *****  WEATHER ACROSS SOUTH DAKOTA  *****

CITY           SKY/WX    TMP DP  RH WIND       PRES   REMARKS
SIOUX FALLS    CLOUDY    74  63  68 S18G25    29.71R
BROOKINGS      NOT AVBL
WATERTOWN      FAIR      72  57  59 SE14G24   29.68F
HURON          MOCLDY    79  64  60 SE15G24   29.60F
SISSETON         N/A     73  50  44 SE15      29.65R
ABERDEEN       FAIR      76  59  55 SE24G32   29.55F
MITCHELL       MOCLDY    80  65  59 S18G29    29.65S
PIERRE         LGT RAIN  70  59  68 NW13G22   29.56F
MOBRIDGE       FAIR      84  59  42 S24G38    29.46S
RAPID CITY     FAIR      67  53  61 NW16      29.69S
$$

  *****  SOME WEATHER IN NEARBY STATES *****

CITY           SKY/WX    TMP DP  RH WIND       PRES   REMARKS
GLASGOW MT     FAIR      73  44  35 N13       29.69R
GREAT FALLS MT FAIR      68  47  46 SE7       29.76S
CHEYENNE WY    FAIR      68  38  33 NW14G26   29.91F
SCOTTSBLUFF NE FAIR      72  49  44 N10       29.75F
OMAHA NE       CLOUDY    77  65  66 SE21      29.78S
DES MOINES IA  CLOUDY    74  56  53 SE12      29.89R
DAVENPORT IA   NOT AVBL
CHICAGO IL     FAIR      69  45  41 S8        30.03R
EAU CLAIRE WI  FAIR      64  47  53 S7        29.90R
LA CROSSE WI   FAIR      71  48  43 S3        29.93R
$$

  *****  SOME NATIONAL WEATHER *****

CITY           SKY/WX    TMP DP  RH WIND       PRES   REMARKS
LA GUARDIA NY  FAIR      70  54  56 N8        29.99R
RALEIGH NC     FAIR      64  57  78 CALM      30.10R
ATLANTA GA     FAIR      75  53  46 N8        30.09R
NEW ORLEANS LA CLOUDY    76  69  79 CALM      30.00R
OKLAHOMA CITY  FAIR      81  67  62 S17G29    29.92R
ALBUQUERQUE NM FAIR      80  41  24 S21G33    29.96S
SALT LAKE CITY FAIR      84  33  16 N5        29.84F
LOS ANGELES CA FAIR      66  59  78 W13       29.84S
BOISE ID       FAIR      85  40  20 NE5       29.76F
SEATTLE WA     FAIR      70  49  47 CALM      29.97S
$$

*** WEATHER ACROSS MANITOBA...SASKATCHEWAN AND ONTARIO ***
                ***ONTARIO***

CITY           SKY/WX    TMP DP  RH WIND       PRES   REMARKS
GERALDTON      PTCLDY    61  48  63 S8        29.77R
THUNDER BAY    MOCLDY    61  48  63 W2        29.80R
SIOUX LOOKOUT  PTCLDY    54  48  82 S3        29.75S
TORONTO        PTCLDY    59  46  63 W5        30.01R
BIG TROUT LK   PTCLDY    50  46  87 N8        29.78R
PICKLE LAKE    NOT AVBL
DRYDEN         MOCLDY    64  48  55 S7        29.76R
KENORA         MOCLDY    66  48  52 S8        29.73S
$$
                *** MANITOBA***

CITY           SKY/WX    TMP DP  RH WIND       PRES   REMARKS
BRANDON        CLOUDY    70  61  73 SE7       29.53S
DAUPHIN        CLOUDY    70  61  73 SE6       29.51R
ISLAND LAKE    PTCLDY    55  46  71 NE13G21   29.77R
PILOT MOUND      N/A     66  54  63 E8          N/A
THE PAS        CLOUDY    64  50  59 E10G22    29.55S
THOMPSON       MOCLDY    54  41  62 E13G21    29.80R
WINNIPEG       MOCLDY    70  48  46 SE15G21   29.60S
LYNN LAKE      CLEAR     57  39  51 E17G25    29.75R
CHURCHILL      PTCLDY    43  41  93 E9        30.00S
GILLAM         PTCLDY    50  36  57 NE13G18   29.89R
$$
                ***SASKATCHEWAN***

CITY           SKY/WX    TMP DP  RH WIND       PRES   REMARKS
ESTEVAN        MOCLDY    64  57  77 NW6       29.61R
KINDERSLEY     PTCLDY    63  43  48 NW5       29.71R
LLOYDMINSTER   PTCLDY    59  46  63 W13G18    29.68R
PRINCE ALBERT  PTCLDY    64  55  72 N6        29.54S
REGINA         PTCLDY    63  55  77 W10       29.63R
YORKTON        CLOUDY    66  59  77 W5        29.54R
N. BATTLEFORD  CLEAR     61  43  51 W14G21    29.66R
LA RONGE       LGT RAIN  57  57 100 NE3       29.57R
SASKATOON      PTCLDY    63  43  48 W18G26    29.63R
SWIFT CURRENT  CLEAR     59  41  51 NW10      29.72R
$$
NOTE: THESE ARE AUTOMATED STATIONS WITH LIMITED QUALITY CONTROL
      "FAIR" INDICATES FEW OR NO CLOUDS BELOW 12,000 FEET WITH NO
      SIGNIFICANT WEATHER AND/OR OBSTRUCTIONS TO VISIBILITY.
      SKY/WX - SKY CONDITION AND SIGNIFICANT WEATHER.
      TMP - AIR TEMPERATURE.    DP   - DEWPOINT TEMPERATURE.
      RH  - RELATIVE HUMIDITY.  PRES - PRESSURE.
      HX  - HEAT INDEX.         WCI  - WIND CHILL INDEX.
$




USA.gov is the U.S. government's official web portal to all federal, state and local government web resources and services.